Back to catalog

COSMOS 1045

AliveNavigationPO
NORAD 11084·PAYLOAD·🇷🇺 Russia

Launched Oct 26, 1978 from Plesetsk Cosmodrome

Loading…

Next Passes (next 24 hours)

TLE

FreshSource: Space-Track

Epoch: Sep 14, 2026, 05:00 UTC

1 11084U 78100A   26257.20892425  .00000037  00000-0  36141-3 0  9992
2 11084  82.5551 351.6900 0013043 146.8471 237.9960 11.96770790 91911

Track COSMOS 1045 in real time with AllMySat

Download on the App Store